Location: NJAA Observatory
(40.6819°N, 74.8979°W)
Time: 03:46:09
(UTC-04:00)

S-56A Canister/Altair - Visible Passes

Search period start: 31 October 2014 00:00
Search period end: 09 November 2014 23:00
Orbit: 632 x 2503 km, 38.9° (Epoch: 29 October)

Date Brightness Start Highest point End Pass type
(mag) Time Alt. Az. Time Alt. Az. Time Alt. Az.
31 Oct 10.1 18:32:36 10° WSW 18:47:06 72° SSE 19:00:06 14° E visible
31 Oct 9.6 20:38:48 10° W 20:54:10 84° S 20:57:33 61° ESE visible
31 Oct 10.5 22:46:07 10° W 22:55:00 41° W 22:55:00 41° W visible
01 Nov 10.2 17:59:55 10° WSW 18:13:58 69° SSE 18:28:35 10° E visible
01 Nov 9.9 20:05:44 10° W 20:21:00 84° S 20:26:54 45° E visible
01 Nov 10.1 22:12:50 10° W 22:24:21 56° WSW 22:24:21 56° WSW visible
02 Nov 11.5 00:20:53 10° W 00:21:48 12° W 00:21:48 12° W visible
02 Nov 10.0 18:32:44 10° W 18:47:47 84° S 18:56:15 32° E visible
02 Nov 9.8 20:39:37 10° W 20:53:42 70° SW 20:53:42 70° SW visible
02 Nov 11.3 22:47:22 10° WNW 22:51:09 20° W 22:51:09 20° W visible
03 Nov 10.0 17:59:51 10° W 18:14:34 83° S 18:25:38 22° E visible
03 Nov 9.7 20:06:27 10° W 20:21:41 75° SSW 20:23:05 71° SSE visible
03 Nov 10.9 22:13:56 10° WNW 22:20:32 28° W 22:20:32 28° W visible
04 Nov 10.1 17:27:03 10° WSW 17:41:21 82° S 17:55:03 14° E visible
04 Nov 9.8 19:33:22 10° W 19:48:34 78° SSW 19:52:30 57° SE visible
04 Nov 10.6 21:40:34 10° WNW 21:49:57 38° WSW 21:49:57 38° WSW visible
05 Nov 10.2 16:54:22 10° WSW 17:08:09 80° S 17:23:15 10° E visible
05 Nov 9.9 19:00:21 10° W 19:15:24 80° SSW 19:21:58 42° ESE visible
05 Nov 10.2 21:07:17 10° WNW 21:19:25 49° WSW 21:19:25 49° WSW visible
05 Nov 11.7 23:16:47 10° W 23:16:53 10° W 23:16:53 10° W visible
06 Nov 10.0 18:27:26 10° W 18:42:12 82° S 18:51:29 29° ESE visible
06 Nov 10.0 20:34:06 10° WNW 20:48:42 57° SSW 20:48:56 57° SSW visible
06 Nov 11.4 22:42:50 10° W 22:46:24 17° W 22:46:24 17° W visible
07 Nov 10.1 17:54:36 10° W 18:08:59 83° S 18:21:04 19° ESE visible
07 Nov 10.0 20:00:59 10° WNW 20:15:43 61° SSW 20:18:32 54° S visible
07 Nov 11.1 22:09:06 10° W 22:16:00 24° WSW 22:16:00 24° WSW visible
08 Nov 10.1 17:21:51 10° W 17:35:46 84° S 17:50:44 10° E visible
08 Nov 10.1 19:27:57 10° WNW 19:42:41 65° SSW 19:48:12 44° SE visible
08 Nov 10.8 21:35:33 10° W 21:45:41 31° WSW 21:45:41 31° WSW visible
09 Nov 10.1 16:49:12 10° W 17:02:34 84° S 17:17:51 10° E visible
09 Nov 10.1 18:55:01 10° W 19:09:35 68° SSW 19:17:59 32° SE visible
09 Nov 10.6 21:02:09 10° W 21:15:01 36° SW 21:15:28 36° SW visible
